Powrót do katalogu

INTELSAT 2-F3

AktywnyŁącznośćGEO
NORAD 2717·PAYLOAD· XX

Wystrzelony Mar 23, 1967 z Cape Canaveral Space Force Station

Loading…

TLE

ŚwieżeSource: Space-Track

Epoka: Sep 14, 2026, 15:48 UTC

1 02717U 67026A   26257.65873472  .00000000  00000-0  00000-0 0  9992
2 02717   4.2971  67.2715 0017616 222.1665   3.3868  1.00390908124796

Śledź INTELSAT 2-F3 w czasie rzeczywistym z AllMySat

Download on the App Store